[[{"header":{"parameterUnit":"m.s-1","parameterCategory":1,"la1":30.2991,"la2":30.254,"lo1":-89.0895,"lo2":-89.0444,"dy":0.0017,"dx":0.0017,"nx":28,"ny":28,"refTime":"2023-07-31T09:00:00:Z","depth":0,"parameterNumber":2,"parameterNumberName":"U-component_of_WINDS"},"data":[0,0,0,0,0,0,0,0,0,0,0,0,0,0,0,0,0,0,0,0,0,0,0,0,0,0,0,0,0,0,0,0,0,0,0,0,0,0,0,0,0,0,0,0,0,0,0,0,0,0,0,0,0,0,0,0,0,0,4.6722,4.6722,0,4.6734,4.6735,4.6735,4.661,4.6606,4.6603,4.66,4.6614,4.6618,4.6622,0,0,0,0,0,0,0,0,0,0,0,0,0,4.6591,4.6594,4.6722,4.6722,4.6722,4.6734,4.6735,4.6735,4.6611,4.6606,4.6602,4.6598,4.6613,4.6618,4.6622,0,0,0,0,0,0,0,0,0,0,0,0,0,4.663,4.6595,4.6722,4.6662,4.6656,4.6734,4.6735,4.6735,4.6611,4.6606,4.6601,4.6596,4.6612,4.6617,4.6622,4.6759,0,0,4.6639,4.6641,0,0,0,0,0,0,0,0,4.6628,4.6635,4.667,4.6666,4.666,4.6665,4.6693,4.6743,4.6613,4.6629,4.66,4.6594,4.6636,4.6639,4.6653,4.676,4.6761,4.6639,4.6643,4.6645,4.6647,0,0,0,0,0,0,0,4.6625,4.6634,4.6727,4.6671,4.6665,4.6634,4.6634,4.6702,4.6661,4.6627,4.6618,4.6621,4.6632,4.6648,4.6652,4.6761,4.6639,4.6644,4.6647,4.665,4.6977,4.6982,0,0,0,0,0,0,4.6631,4.6632,4.6727,4.6727,4.6631,4.6641,4.664,4.6669,4.666,4.6654,4.6625,4.6615,4.6641,4.6646,4.6652,4.6808,4.6645,4.665,4.6653,4.6972,4.6978,4.6984,0,0,0,0,0,0,4.6628,4.664,4.6726,4.6677,4.6686,4.6648,4.6681,4.6672,4.6687,4.6659,4.6651,4.6649,4.6637,4.6644,4.6732,4.6807,4.6652,4.6657,4.6965,4.6974,4.6981,4.7124,0,0,0,0,0,0,4.6625,4.664,4.6692,4.6679,4.6689,4.6807,4.6686,4.6676,4.6697,4.6684,4.6679,4.6673,4.6634,4.6725,4.6738,4.6812,4.6662,4.6958,4.6969,4.6979,4.7113,4.7136,4.7156,0,0,0,0,0,4.6621,4.6733,4.6695,4.6707,4.6753,4.6811,4.6817,4.6768,4.6704,4.6755,4.6736,4.6673,4.6798,4.6735,4.6748,4.6825,4.6953,4.6966,4.6978,4.7103,4.7132,4.7156,0,0,0,0,0,0,4.6757,4.6731,4.6688,4.68,4.6809,4.679,4.6853,4.6801,4.6829,4.6816,4.6755,4.6755,4.6853,4.6848,4.6779,4.6955,4.6864,4.6879,4.6954,4.6981,4.7003,4.7001,4.6666,0,0,0,0,0,4.68,4.6849,4.6824,4.6925,4.6931,4.6892,4.6916,4.6877,4.6884,4.6888,4.6875,4.6885,4.6925,4.6954,4.699,4.7112,4.7107,4.7171,4.7193,4.7211,4.7225,4.7285,4.7312,4.7024,4.7024,4.7024,0,0,4.6889,4.6881,4.6916,4.6952,4.6954,4.7005,4.6896,4.6956,4.6994,4.6897,4.6978,4.697,4.6976,4.7081,4.7127,4.708,4.7303,4.7227,4.7242,4.7245,4.7301,4.7328,4.7352,4.7033,4.7031,4.703,0,0,4.7077,4.7078,4.7159,4.7163,4.7167,4.714,4.716,4.7149,4.7139,4.722,4.7147,4.7191,4.7264,4.727,4.7283,4.7471,4.7413,4.7485,4.7599,4.7659,4.7681,4.7701,4.7765,4.7789,4.7499,4.7499,4.75,0,4.7188,4.7262,4.7208,4.7272,4.7289,4.7203,4.7284,4.7291,4.7308,4.7321,4.7269,4.7355,4.7354,4.7457,4.7503,4.7518,4.7537,4.7484,4.7682,4.7702,4.7719,4.7779,4.7804,4.7508,4.7507,4.7506,4.7505,0,4.7396,4.7449,4.7515,4.753,4.7555,4.7628,4.7584,4.7615,4.7575,4.7553,4.7635,4.763,4.7662,4.7684,4.7647,4.7782,4.7752,4.7693,4.7599,4.7756,4.7811,4.7834,4.752,4.7517,4.7514,4.7512,0,0,4.767,4.7653,4.7678,4.7682,4.768,4.7719,4.7788,4.7818,4.7844,4.7859,4.7913,4.7975,4.7919,4.7933,4.7896,4.7949,4.8094,4.7882,4.7881,4.7918,4.8239,4.8281,4.8309,4.8057,4.8061,4.8064,4.8237,0,4.785,4.7964,4.7917,4.8035,4.8081,4.8,4.8058,4.8063,4.8045,4.8081,4.8061,4.8105,4.8029,4.8036,4.8086,4.8066,4.8157,4.8053,4.8105,4.8107,4.8102,4.8339,4.8384,4.8547,4.8259,4.8262,4.8265,0,4.8076,4.8096,4.8219,4.8205,4.8222,4.8276,4.8298,4.8335,4.8338,4.832,4.8336,4.8286,4.8351,4.826,4.8347,4.8278,4.8296,4.829,4.8295,4.8295,4.8194,4.8342,4.8599,4.8622,4.8299,4.8297,4.8294,0,4.8259,4.8318,4.8397,4.8404,4.8391,4.843,4.8427,4.8424,4.8444,4.8464,4.8476,4.8505,4.8519,4.8542,4.85,4.8438,4.8593,4.8499,4.8578,4.8579,4.8612,4.861,4.8872,4.863,4.863,4.8629,4.8629,0,4.8463,4.854,4.8479,4.8528,4.8611,4.8556,4.864,4.8628,4.8626,4.867,4.8603,4.8646,4.859,4.8628,4.8596,4.8671,4.868,4.8666,4.8656,4.867,4.8672,4.8679,4.8666,4.8636,4.8634,4.8633,4.8632,0,4.8681,4.8643,4.8723,4.8703,4.87,4.8762,4.8745,4.8789,4.8765,4.8822,4.8832,4.8795,4.8836,4.8797,4.8837,4.8815,4.8914,4.889,4.8913,4.8905,4.8985,4.8977,4.9258,4.9291,4.9032,4.9034,4.9037,0,4.8812,4.8869,4.8854,4.8878,4.8877,4.8918,4.8937,4.8885,4.8908,4.8914,4.8957,4.8992,4.9016,4.9085,4.9062,4.9091,4.9064,4.9161,4.9068,4.9079,4.9061,4.9057,4.9061,4.9179,4.9182,4.9184,4.9186,0,4.9048,4.9025,4.9055,4.9078,4.9102,4.9118,4.9129,4.9153,4.9098,4.9127,4.9167,4.9186,4.9224,4.9259,4.928,4.9276,4.9222,4.9216,4.9235,4.9249,4.9258,4.925,4.8961,4.9209,4.9207,4.9205,4.9204,4.9203,4.9223,4.9268,4.9264,4.9298,4.93,4.9311,4.935,4.9331,4.9362,4.9388,4.9356,4.9404,4.9404,4.9426,4.9429,4.9466,4.9425,4.9454,4.946,4.9468,4.9477,4.9255,4.947,4.9469,4.9469,4.9468,4.9468,0,4.9452,4.9444,4.9477,4.9492,4.9519,4.9465,4.9474,4.9499,4.9542,4.9546,4.957,4.9615,4.9648,4.9627,4.9654,4.9687,4.9663,4.9696,4.9691,4.9691,4.9514,4.9493,4.9715,4.9715,4.9715,4.9715,4.9715,4.9715,4.9574,4.9646,4.9623,4.9695,4.9687,4.9732,4.9741,4.9751,4.9753,4.9805,4.9831,4.9816,4.981,4.9836,4.9863,4.9856,4.9867,4.9909,4.9893,4.9728,4.9704,4.968,4.966,4.9913,4.9913,5.0065,5.0067,5.0068]},{"header":{"parameterUnit":"m.s-1","parameterCategory":1,"la1":30.2991,"la2":30.254,"lo1":-89.0895,"lo2":-89.0444,"dy":0.0017,"dx":0.0017,"nx":28,"ny":28,"refTime":"2023-07-31T09:00:00:Z","depth":0,"parameterNumber":3,"parameterNumberName":"V-component_of_WINDS"},"data":[0,0,0,0,0,0,0,0,0,0,0,0,0,0,0,0,0,0,0,0,0,0,0,0,0,0,0,0,0,0,0,0,0,0,0,0,0,0,0,0,0,0,0,0,0,0,0,0,0,0,0,0,0,0,0,0,0,0,2.98,2.9801,0,2.9898,2.9899,2.99,2.9899,2.9897,2.9896,2.9895,2.9991,2.9995,2.9999,0,0,0,0,0,0,0,0,0,0,0,0,0,2.9607,2.961,2.98,2.9801,2.9802,2.9898,2.9899,2.99,2.9899,2.9897,2.9896,2.9894,2.999,2.9994,2.9999,0,0,0,0,0,0,0,0,0,0,0,0,0,2.9696,2.9611,2.98,2.9813,2.9815,2.9898,2.9899,2.9901,2.9899,2.9897,2.9895,2.9894,2.9988,2.9994,3.0,3.0073,0,0,3.0017,3.0019,0,0,0,0,0,0,0,0,2.9691,2.9703,2.981,2.9812,2.9815,2.9884,2.9866,2.9959,2.99,2.9867,2.9895,2.9893,2.9957,2.9965,2.9988,3.0078,3.0082,3.0017,3.0021,3.0023,3.0025,0,0,0,0,0,0,0,2.9685,2.9699,2.9838,2.9811,2.9815,2.9813,2.9823,2.9884,2.9922,2.987,2.987,2.9882,2.9958,2.9982,2.999,3.0083,3.0017,3.0022,3.0026,3.0028,3.0238,3.024,0,0,0,0,0,0,2.9677,2.9694,2.9835,2.9841,2.9747,2.9818,2.983,2.9864,2.9921,2.9928,2.9884,2.9882,2.9973,2.9983,2.9993,3.0083,3.0023,3.0028,3.0032,3.0236,3.0238,3.0241,0,0,0,0,0,0,2.9672,2.9689,2.9831,2.9768,2.9786,2.9823,2.9862,2.9867,2.9891,2.9931,2.9938,2.9902,2.9972,2.9985,3.0053,3.0086,3.0031,3.0036,3.0233,3.0236,3.0239,3.0262,0,0,0,0,0,0,2.9667,2.9688,2.9717,2.9769,2.9789,2.9892,2.9864,2.987,2.9901,2.99,2.995,2.9956,2.9972,3.0045,3.0059,3.0093,3.0041,3.023,3.0235,3.0238,3.0259,3.0266,3.0272,0,0,0,0,0,2.966,2.9719,2.9719,2.9736,2.9827,2.9893,2.9905,2.9923,2.9904,2.9933,2.9959,2.9955,3.008,3.0052,3.0068,3.0104,3.0228,3.0233,3.0238,3.0256,3.0265,3.0272,0,0,0,0,0,0,2.9669,2.9726,2.9726,2.9804,2.9844,2.9893,2.9931,2.9932,2.9977,2.9973,2.9992,3.0003,3.0071,3.0094,3.0062,3.0177,3.0152,3.016,3.016,3.0168,3.0175,3.0167,3.0045,0,0,0,0,0,2.9681,2.9731,2.9778,2.9842,2.9862,2.9893,2.9922,2.9933,2.9974,2.9991,3.0021,3.0061,3.0109,3.014,3.0186,3.0262,3.0272,3.0295,3.0301,3.0306,3.0313,3.0354,3.0364,3.0257,3.0257,3.0257,0,0,2.9704,2.9741,2.9772,2.9844,2.9877,2.9927,2.9907,2.9961,2.9998,2.9998,3.0065,3.0089,3.0134,3.0206,3.0239,3.0227,3.0345,3.0313,3.0317,3.032,3.036,3.037,3.0379,3.026,3.026,3.0259,0,0,2.9773,2.9807,2.9863,2.9896,2.9946,2.9966,2.9979,3.0028,3.0045,3.0112,3.0113,3.0156,3.0239,3.0271,3.0298,3.0378,3.0375,3.0392,3.0427,3.0466,3.0474,3.0482,3.0509,3.0519,3.0399,3.0399,3.0399,0,2.9795,2.9873,2.9892,2.9947,2.9978,2.9982,3.0038,3.0069,3.013,3.0151,3.0137,3.0241,3.0271,3.035,3.037,3.0392,3.0407,3.0386,3.0472,3.048,3.0487,3.0513,3.0524,3.0401,3.0401,3.04,3.04,0,2.9897,2.9951,2.999,3.0051,3.0087,3.0142,3.0168,3.0202,3.0209,3.023,3.0297,3.0334,3.0388,3.0408,3.0415,3.0487,3.0478,3.0468,3.0443,3.0499,3.0523,3.0534,3.0403,3.0403,3.0402,3.0402,0,0,2.9974,3.0045,3.0059,3.0086,3.0141,3.0182,3.0236,3.029,3.0318,3.036,3.0405,3.0475,3.0466,3.0497,3.0507,3.0542,3.0602,3.0527,3.0529,3.0539,3.0683,3.0689,3.0701,3.06,3.0603,3.0604,3.0678,0,3.0047,3.0146,3.0165,3.025,3.0299,3.0303,3.0351,3.0388,3.041,3.0453,3.0475,3.0525,3.0509,3.0528,3.0562,3.0587,3.063,3.0582,3.0641,3.0643,3.0629,3.0714,3.0721,3.079,3.0688,3.069,3.0691,0,3.0146,3.0192,3.0283,3.033,3.0351,3.0394,3.0444,3.0486,3.0528,3.0541,3.0575,3.0582,3.0637,3.061,3.0685,3.0652,3.0677,3.0693,3.0696,3.0701,3.067,3.072,3.0812,3.0822,3.0707,3.0706,3.0705,0,3.0191,3.0276,3.0341,3.0364,3.0421,3.0451,3.0476,3.0516,3.0547,3.0591,3.0611,3.066,3.0686,3.0723,3.0742,3.0721,3.0816,3.079,3.0827,3.0826,3.0846,3.0844,3.0941,3.0864,3.0864,3.0863,3.0863,0,3.0271,3.0326,3.0362,3.0402,3.0463,3.0483,3.0543,3.0567,3.0603,3.0646,3.0652,3.0693,3.0716,3.0759,3.0774,3.0833,3.0845,3.0856,3.0859,3.0855,3.0854,3.0871,3.0866,3.0866,3.0866,3.0865,3.0865,0,3.0331,3.0358,3.0429,3.0478,3.0491,3.0534,3.0575,3.0613,3.0634,3.0689,3.0702,3.0735,3.0786,3.0809,3.0872,3.0882,3.0949,3.095,3.0935,3.0936,3.0971,3.0967,3.1082,3.1098,3.1011,3.1012,3.1012,0,3.038,3.0422,3.0476,3.0506,3.0532,3.0581,3.0612,3.0634,3.0666,3.0718,3.0749,3.0801,3.0843,3.0924,3.0952,3.1,3.1001,3.1038,3.1008,3.1002,3.1,3.0997,3.1,3.1043,3.1044,3.1044,3.1045,0,3.0462,3.0473,3.052,3.0571,3.0609,3.065,3.0689,3.0713,3.0741,3.0777,3.083,3.0863,3.0927,3.0978,3.1027,3.1051,3.1052,3.1054,3.1065,3.1061,3.105,3.1055,3.0949,3.1051,3.1051,3.105,3.105,3.105,3.0517,3.0555,3.0599,3.065,3.0682,3.0719,3.0757,3.0783,3.0829,3.0884,3.0893,3.0949,3.0989,3.1056,3.1082,3.1125,3.1116,3.1132,3.1135,3.1139,3.114,3.1044,3.1134,3.1134,3.1134,3.1134,3.1134,0,3.0599,3.0627,3.0674,3.0731,3.077,3.077,3.0814,3.0846,3.0896,3.0934,3.0976,3.1037,3.1086,3.1118,3.1167,3.1195,3.1197,3.1207,3.1205,3.121,3.1146,3.1132,3.1205,3.1205,3.1205,3.1205,3.1205,3.1205,3.0646,3.071,3.0726,3.0805,3.0832,3.0888,3.0913,3.0947,3.0977,3.1045,3.1086,3.1108,3.1143,3.1195,3.1239,3.1247,3.1264,3.1275,3.1283,3.1222,3.1215,3.1207,3.1194,3.1279,3.1279,3.1343,3.1343,3.1344]}]]